Location: Boiro
(42.6475°N, 8.8834°W)
Time: 12:43:12
(UTC+01:00)

Tiros 1 - Pass Details

Date: 03 December 2021
Orbit: 630 x 663 km, 48.4° (Epoch: 20 January)

Event Time Altitude Azimuth Distance (km) Brightness Sun altitude
Rises 19:17:38 0° 209° (SSW) 2,905 11.3 -13.4°
Reaches altitude 10° 19:20:10 10° 198° (SSW) 2,004 10.2 -13.9°
Maximum altitude 19:24:07 28° 139° (SE) 1,180 8.3 -14.6°
Enters shadow 19:26:01 21° 100° (E) 1,422 8.4 -14.9°
